Weather in Bielsk Podlaski

Poland     52°45′54″N   23°11′12″E
temp.,
°C
wind,
m/s
gust,
m/s
humid.,
%
clouds,
%
prec.,
mm/h
press.,
hPa
HPBL,
m
28 september, tue
tue2823:00+8ese410884 0.0 1025234
02:00+6ese38890 0.0 1026185
05:00+5e38925 0.0 1026153
08:00+7ese39815 0.0 1026268
11:00+13ese57594 0.0 10271065
14:00+15se555214 0.0 10261372
17:00+13ese476278 0.0 1027260
20:00+9e4981100 0.0 1028167
29 september, wed
wed2923:00+8ese487999 0.0 1029151
02:00+7ese378193 0.0 1029129
05:00+7ese4979100 0.0 1029146
08:00+9ese411755 0.0 1029350
11:00+14se79536 0.0 10291452
14:00+15se795131 0.0 10271669
17:00+14ese610592 0.0 1026668
20:00+11se715635 0.0 1027549
30 september, thu
thu3023:00+10se716685 0.0 1027490
02:00+9se715715 0.0 1026454
05:00+8se7157323 0.0 1026424
08:00+8se7147372 0.0 1026445
11:00+12sse7961100 0.0 1027637
14:00+14sse6760100 0.0 1026910
17:00+12sse3768100 0.0 1027352
20:00+10s2493100 1.4 1028134
1 october, fri
fri123:00+10sw2395100 0.3 1028137
02:00+9w1196100 0.3 102915
05:00+10wsw0090100 0.0 102910
08:00+10ssw008496 0.0 102960
11:00+12sse1278100 0.0 1029218
14:00+15se347177 0.0 1028710
17:00+13se58805 0.1 1026415
20:00+9se38865 0.1 1026139
2 october, sat
sat223:00+8sse378931 0.0 1025127
02:00+8sse4108842 0.0 1024193
05:00+8sse51171100 0.0 1023194
08:00+9sse51167100 0.0 1022271
11:00+13sse6959100 0.0 1022422
14:00+17sse695587 0.0 1020808
17:00+16sse5106686 0.0 1019324
20:00+13sse61365100 0.0 1020330